TimeEST,TemperatureF,Dew PointF,Humidity,Sea Level PressureIn,VisibilityMPH,Wind Direction,Wind SpeedMPH,Gust SpeedMPH,PrecipitationIn,Events,Conditions,WindDirDegrees,DateUTC
12:18 AM,50.0,48.2,94,29.87,0.5,NNE,5.8,-,N/A,Fog,Fog,20,2013-01-13 05:18:00
12:38 AM,48.2,48.2,100,29.88,1.2,North,3.5,-,N/A,,Overcast,10,2013-01-13 05:38:00
12:57 AM,48.2,48.2,100,29.86,1.2,NNE,4.6,-,N/A,,Overcast,30,2013-01-13 05:57:00
1:18 AM,48.2,48.2,100,29.84,1.5,North,5.8,-,N/A,Rain,Rain,10,2013-01-13 06:18:00
1:37 AM,48.2,48.2,100,29.82,2.0,North,8.1,-,N/A,Rain,Heavy Rain,10,2013-01-13 06:37:00
1:58 AM,48.2,48.2,100,29.82,5.0,NNE,8.1,-,N/A,Rain,Rain,20,2013-01-13 06:58:00
2:17 AM,46.4,46.4,100,29.81,7.0,NNE,10.4,-,N/A,Rain,Rain,20,2013-01-13 07:17:00
2:37 AM,46.4,42.8,87,29.80,10.0,NNE,9.2,-,N/A,Rain,Light Rain,20,2013-01-13 07:37:00
2:58 AM,46.4,41.0,81,29.78,10.0,NNE,10.4,-,N/A,Rain,Rain,20,2013-01-13 07:58:00
3:17 AM,44.6,41.0,87,29.78,10.0,NNE,11.5,16.1,N/A,Rain,Light Rain,20,2013-01-13 08:17:00
3:38 AM,44.6,41.0,87,29.81,4.0,NW,9.2,-,N/A,Rain,Heavy Rain,320,2013-01-13 08:38:00
3:58 AM,42.8,41.0,93,29.79,4.0,North,11.5,-,N/A,Rain,Rain,360,2013-01-13 08:58:00
4:18 AM,42.8,39.2,87,29.79,5.0,North,10.4,17.3,N/A,Rain,Rain,10,2013-01-13 09:18:00
4:38 AM,41.0,37.4,87,29.77,4.0,North,13.8,20.7,N/A,Rain,Rain,360,2013-01-13 09:38:00
4:57 AM,41.0,37.4,87,29.77,5.0,North,10.4,18.4,N/A,Rain,Rain,360,2013-01-13 09:57:00
5:18 AM,39.2,37.4,93,29.76,3.0,North,9.2,-,N/A,Rain,Rain,350,2013-01-13 10:18:00
5:37 AM,39.2,37.4,93,29.77,5.0,West,11.5,25.3,N/A,Rain,Rain,270,2013-01-13 10:37:00
5:57 AM,39.2,37.4,93,29.77,7.0,North,10.4,-,N/A,Rain,Light Rain,350,2013-01-13 10:57:00
6:18 AM,39.2,37.4,93,29.74,10.0,North,12.7,20.7,N/A,Rain,Light Rain,10,2013-01-13 11:18:00
6:37 AM,41.0,37.4,87,29.77,10.0,North,9.2,16.1,N/A,Rain,Light Rain,350,2013-01-13 11:37:00
6:58 AM,41.0,37.4,87,29.79,10.0,North,9.2,-,N/A,,Overcast,350,2013-01-13 11:58:00
7:18 AM,41.0,39.2,93,29.79,10.0,North,11.5,18.4,N/A,,Overcast,360,2013-01-13 12:18:00
7:37 AM,41.0,39.2,93,29.79,10.0,North,11.5,18.4,N/A,,Overcast,350,2013-01-13 12:37:00
7:58 AM,41.0,37.4,87,29.78,10.0,NNE,12.7,17.3,N/A,,Overcast,20,2013-01-13 12:58:00
8:18 AM,41.0,37.4,87,29.79,10.0,NNW,9.2,-,N/A,,Overcast,340,2013-01-13 13:18:00
8:38 AM,41.0,37.4,87,29.81,10.0,North,6.9,-,N/A,,Overcast,350,2013-01-13 13:38:00
8:57 AM,41.0,37.4,87,29.82,10.0,NW,5.8,-,N/A,,Overcast,310,2013-01-13 13:57:00
9:18 AM,41.0,37.4,87,29.83,10.0,WNW,5.8,-,N/A,,Overcast,300,2013-01-13 14:18:00
9:37 AM,41.0,39.2,93,29.83,10.0,NW,5.8,-,N/A,,Overcast,310,2013-01-13 14:37:00
9:58 AM,41.0,39.2,93,29.82,10.0,NW,6.9,-,N/A,,Overcast,320,2013-01-13 14:58:00
10:18 AM,42.8,39.2,87,29.83,10.0,Calm,Calm,-,N/A,,Overcast,0,2013-01-13 15:18:00
10:37 AM,42.8,39.2,87,29.83,10.0,Calm,Calm,-,N/A,,Overcast,0,2013-01-13 15:37:00
10:58 AM,42.8,39.2,87,29.84,10.0,Calm,Calm,-,N/A,,Overcast,0,2013-01-13 15:58:00
11:17 AM,42.8,39.2,87,29.84,10.0,Calm,Calm,-,N/A,,Overcast,0,2013-01-13 16:17:00
11:37 AM,42.8,39.2,87,29.85,10.0,West,5.8,-,N/A,,Overcast,260,2013-01-13 16:37:00
11:58 AM,42.8,39.2,87,29.85,10.0,West,4.6,-,N/A,,Overcast,280,2013-01-13 16:58:00
12:17 PM,42.8,39.2,87,29.85,10.0,WNW,5.8,-,N/A,,Overcast,290,2013-01-13 17:17:00
12:38 PM,42.8,39.2,87,29.85,10.0,WNW,6.9,-,N/A,,Overcast,290,2013-01-13 17:38:00
12:57 PM,42.8,39.2,87,29.85,10.0,WNW,6.9,-,N/A,,Overcast,300,2013-01-13 17:57:00
1:18 PM,42.8,39.2,87,29.86,10.0,WNW,5.8,-,N/A,,Overcast,290,2013-01-13 18:18:00
1:38 PM,42.8,39.2,87,29.84,10.0,Calm,Calm,-,N/A,,Overcast,0,2013-01-13 18:38:00
1:57 PM,42.8,39.2,87,29.86,10.0,WNW,3.5,-,N/A,,Overcast,300,2013-01-13 18:57:00
2:18 PM,42.8,39.2,87,29.88,7.0,WNW,5.8,-,N/A,,Overcast,300,2013-01-13 19:18:00
2:37 PM,41.0,39.2,93,29.87,4.0,WNW,6.9,-,N/A,,Light Drizzle,290,2013-01-13 19:37:00
2:57 PM,41.0,39.2,93,29.86,10.0,NNW,3.5,-,N/A,,Overcast,340,2013-01-13 19:57:00
3:18 PM,41.0,39.2,93,29.86,7.0,North,5.8,-,N/A,,Overcast,350,2013-01-13 20:18:00
3:38 PM,41.0,39.2,93,29.85,10.0,North,4.6,-,N/A,,Overcast,350,2013-01-13 20:38:00
3:58 PM,41.0,39.2,93,29.88,10.0,NW,5.8,-,N/A,,Overcast,320,2013-01-13 20:58:00
4:17 PM,41.0,39.2,93,29.89,10.0,NW,6.9,-,N/A,,Overcast,320,2013-01-13 21:17:00
4:38 PM,39.2,37.4,93,29.91,5.0,NW,9.2,-,N/A,,Drizzle,320,2013-01-13 21:38:00
4:58 PM,39.2,37.4,93,29.92,1.2,NW,5.8,-,N/A,,Heavy Drizzle,320,2013-01-13 21:58:00
5:17 PM,39.2,37.4,93,29.91,2.0,NNW,3.5,-,N/A,,Drizzle,340,2013-01-13 22:17:00
5:38 PM,39.2,37.4,93,29.91,5.0,NW,4.6,-,N/A,,Drizzle,320,2013-01-13 22:38:00
5:57 PM,39.2,37.4,93,29.92,5.0,NW,3.5,-,N/A,,Drizzle,310,2013-01-13 22:57:00
6:17 PM,39.2,37.4,93,29.91,7.0,Calm,Calm,-,N/A,Rain,Light Rain,0,2013-01-13 23:17:00
6:38 PM,39.2,37.4,93,29.90,7.0,Calm,Calm,-,N/A,Rain,Light Rain,0,2013-01-13 23:38:00
6:57 PM,39.2,37.4,93,29.89,7.0,Calm,Calm,-,N/A,Rain,Light Rain,0,2013-01-13 23:57:00
7:18 PM,39.2,37.4,93,29.88,3.0,Calm,Calm,-,N/A,Rain,Rain,0,2013-01-14 00:18:00
7:38 PM,37.4,37.4,100,29.90,4.0,Calm,Calm,-,N/A,Rain,Rain,0,2013-01-14 00:38:00
7:57 PM,37.4,37.4,100,29.89,3.0,Calm,Calm,-,N/A,Rain,Light Rain,0,2013-01-14 00:57:00
8:18 PM,37.4,37.4,100,29.89,2.5,Calm,Calm,-,N/A,Rain,Light Rain,0,2013-01-14 01:18:00
8:37 PM,37.4,37.4,100,29.89,5.0,Calm,Calm,-,N/A,,Drizzle,0,2013-01-14 01:37:00
8:58 PM,37.4,37.4,100,29.89,5.0,West,3.5,-,N/A,,Light Drizzle,280,2013-01-14 01:58:00
9:17 PM,37.4,37.4,100,29.90,2.5,West,5.8,-,N/A,Rain,Light Rain,270,2013-01-14 02:17:00
9:38 PM,37.4,37.4,100,29.92,3.0,West,11.5,16.1,N/A,Rain,Rain,280,2013-01-14 02:38:00
9:58 PM,35.6,33.8,93,29.92,3.0,West,9.2,17.3,N/A,Rain,Light Rain,280,2013-01-14 02:58:00
10:17 PM,35.6,33.8,93,29.94,3.0,West,6.9,-,N/A,Rain,Rain,270,2013-01-14 03:17:00
10:38 PM,35.6,33.8,93,29.94,4.0,West,6.9,-,N/A,,Overcast,270,2013-01-14 03:38:00
10:58 PM,35.6,33.8,93,29.95,7.0,West,10.4,-,N/A,,Overcast,270,2013-01-14 03:58:00
11:17 PM,35.6,33.8,93,29.95,10.0,WSW,3.5,-,N/A,,Overcast,240,2013-01-14 04:17:00
11:38 PM,35.6,33.8,93,29.97,10.0,West,4.6,-,N/A,,Overcast,270,2013-01-14 04:38:00
11:57 PM,33.8,32.0,93,29.98,10.0,West,8.1,-,N/A,,Overcast,280,2013-01-14 04:57:00